Location: Unspecified
(0.0000°N, 0.0000°E)
Time: 04:35:36

Vanguard 2 - Pass Details

Date: 17 December 2017
Orbit: 553 x 2939 km, 32.9° (Epoch: 18 March)

Event Time Altitude Azimuth Distance (km) Brightness Sun altitude
Rises 02:42:42 0° 235° (SW) 4,458 - -43.3°
Exits shadow 02:46:25 - 216° (SW) 4,119 11.2 -42.5°
Reaches altitude 10° 02:48:35 10° 205° (SSW) 4,078 11.2 -42.1°
Maximum altitude 02:52:16 12° 185° (S) 4,262 11.5 -41.3°
Drops below altitude 10° 02:56:28 10° 166° (SSE) 4,772 11.9 -40.4°
Sets 03:05:26 0° 139° (SE) 6,374 13.0 -38.5°
